User: anonymous   Login
Location: Fisheating Creek Campgrounds
(26.9333°N, 81.3167°W)
Time: 21:31:08
(UTC-04:00)
Language:

Cosmos 2221 Rocket - Orbit

View from above orbital plane
View from above orbital plane
View from above satellite
View from above satellite

Ground track
Ground track

The orbit data is extracted from the following two-line orbital elements,

1 22237U 92080B   16236.52563074  .00000071  00000-0  64799-5 0  9993
2 22237  82.5113  34.6040 0021301  98.3911 339.7274 14.78275399279461
Epoch (UTC): 23 August 2016 12:36:54
Eccentricity: 0.0021301
inclination: 82.5113°
perigee height: 620 km
apogee height: 650 km
right ascension of ascending node: 34.6040°
argument of perigee: 98.3911°
revolutions per day: 14.78275399
mean anomaly at epoch: 339.7274°
orbit number at epoch: 27946

The dashed part of the orbit path shows where the satellite is in the earth's shadow,  

DLR